Location: Endfield
(51.6667°N, 0.0667°W)
Time: 20:07:01
(UTC+00:00)

CUBEBUG 2 - Visible Passes

Search period start: 19 September 2024 00:00
Search period end: 29 September 2024 00:00
Orbit: 567 x 660 km, 97.8° (Epoch: 18 September)

Date Brightness Start Highest point End Pass type
(mag) Time Alt. Az. Time Alt. Az. Time Alt. Az.
19 Sep ? 01:21:11 10° NE 01:23:33 22° ENE 01:23:33 22° ENE visible
19 Sep ? 02:56:52 10° N 03:00:34 42° NW 03:00:34 42° NW visible
20 Sep ? 01:36:12 10° NNE 01:38:53 28° ENE 01:38:53 28° ENE visible
20 Sep ? 03:12:17 10° N 03:15:54 33° NW 03:15:54 33° NW visible
21 Sep ? 01:51:18 10° NNE 01:54:11 34° NE 01:54:11 34° NE visible
21 Sep ? 03:27:44 10° N 03:31:12 25° WNW 03:31:12 25° WNW visible
22 Sep ? 02:06:27 10° NNE 02:09:29 40° NNE 02:09:29 40° NNE visible
22 Sep ? 03:43:16 10° NNW 03:46:30 20° WNW 03:46:30 20° WNW visible
23 Sep ? 00:47:19 10° NE 00:47:44 11° ENE 00:47:44 11° ENE visible
23 Sep ? 02:21:38 10° NNE 02:24:45 44° NNE 02:24:45 44° NNE visible
23 Sep ? 03:58:54 10° NNW 04:01:34 16° NW 04:01:46 15° WNW visible
24 Sep ? 01:01:48 10° NE 01:02:59 14° ENE 01:02:59 14° ENE visible
24 Sep ? 02:36:52 10° N 02:40:00 42° N 02:40:00 42° N visible
24 Sep ? 04:14:48 10° NNW 04:16:32 12° NW 04:17:01 12° WNW visible
25 Sep ? 01:16:34 10° NE 01:18:14 18° NE 01:18:14 18° NE visible
25 Sep ? 02:52:07 10° N 02:55:14 37° NNW 02:55:14 37° NNW visible
26 Sep ? 01:31:28 10° NNE 01:33:27 22° NE 01:33:27 22° NE visible
26 Sep ? 03:07:25 10° N 03:10:28 31° NW 03:10:28 31° NW visible
27 Sep ? 01:46:26 10° NNE 01:48:39 26° NE 01:48:39 26° NE visible
27 Sep ? 03:22:45 10° N 03:25:40 26° NW 03:25:40 26° NW visible
28 Sep ? 02:01:29 10° NNE 02:03:50 29° NNE 02:03:50 29° NNE visible
28 Sep ? 03:38:09 10° N 03:40:50 21° NW 03:40:50 21° NW visible
